Location: Bondula
(6.3703°N, 10.6756°W)
Time: 16:58:38
(UTC+00:00)

H-II Stage 2 - Pass Details

Date: 22 October 2019
Orbit: 304 x 28223 km, 28.6° (Epoch: 17 November)

Event Time Altitude Azimuth Distance (km) Brightness Sun altitude
Exits shadow 05:00:46 34° 304° (NW) 1,913 4.0 -22.4°
Maximum altitude 05:04:16 86° 31° (NNE) 1,916 4.4 -21.5°
Drops below altitude 10° 11:13:37 10° 114° (ESE) 24,695 10.7 64.7°
Sets 11:58:28 0° 104° (ESE) 18,558 9.7 71.2°
